Union Aéronautique de la Côte d'Azur

Union Aéronautique de la Côte d'Azur
UACA
Approuvé A.T.O. EASA – N°FR.ATO.0108

UNION des aéroclubs
Cannes “Ailes d’Azur”, Nice “Côte d’Azur”, Grasse “St Exupery”, ACCA “Francis Séverac”

Un cache-pitot se trouve à bord de chaque avion. Pensez à le mettre en place à la fin de chaque vol !

Avant de quitter l'avion, vérifiez que vous n'emportez pas la checklist

Un vol ne s'entreprend qu'avec un pare-brise parfaitement propre, il en va de votre sécurité, et de celle des autres

Après chaque vol, merci de mettre en place les pares-soleil!


Météo à Cannes:
METAR
LFMD 201800Z AUTO VRB03KT CAVOK 28/14 Q1014 NOSIG =

TAF
LFMD 201400Z 2015/2115 20005KT CAVOK TEMPO 2015/2017 FEW050TCU BECMG 2017/2020 VRB03KT =

SR / SS: 04:40 / 18:30 UTC (LFMD 2018-08-20)